Total_Precipitation_Accumulation
1.24 1.48 2.24 2.77 2.72 2.10 1.50 1.03 0.79 0.79 0.75 0.57 0.36 0.31 0.50 0.78 1.07 1.37 1.36 1.09 0.71 0.57 0.49 0.62 0.78 0.67 0.61 0.61 0.64 0.72 0.75 0.76 0.78 0.81 0.87 0.65 0.52 0.49 0.44 0.44 0.43 0.40 0.34 0.38 0.47 0.51 0.47 0.40 0.41
1.10 1.92 2.80 3.21 2.50 1.62 1.32 1.00 0.97 0.82 0.58 0.41 0.29 0.26 0.38 0.42 0.32 0.71 1.37 1.42 0.78 0.64 0.59 0.69 0.87 0.77 0.66 0.64 0.73 0.80 0.85 0.87 0.93 0.93 0.81 0.62 0.56 0.55 0.54 0.56 0.57 0.49 0.37 0.37 0.39 0.45 0.45 0.42 0.45
1.27 2.29 2.90 2.91 1.77 1.34 1.26 1.11 0.94 0.61 0.39 0.34 0.32 0.25 0.32 0.46 0.48 0.78 1.25 1.00 0.66 0.66 0.70 0.92 1.02 0.86 0.77 0.74 0.79 0.90 0.98 0.96 0.98 0.93 0.70 0.59 0.57 0.59 0.60 0.64 0.60 0.53 0.47 0.42 0.40 0.41 0.39 0.39 0.41
1.62 2.47 2.58 2.06 1.50 1.09 1.00 1.01 0.69 0.52 0.39 0.29 0.26 0.29 0.34 0.49 0.59 0.71 0.84 0.77 0.63 0.63 0.63 0.81 0.97 0.86 0.80 0.82 0.89 0.88 0.83 0.84 0.92 0.84 0.67 0.56 0.61 0.61 0.62 0.59 0.53 0.54 0.54 0.50 0.48 0.44 0.41 0.42 0.38
2.18 2.67 2.35 1.76 1.36 1.12 0.89 0.70 0.52 0.55 0.46 0.36 0.29 0.39 0.48 0.66 0.71 0.78 0.85 0.79 0.72 0.68 0.61 0.69 0.84 0.79 0.76 0.82 0.90 0.90 0.81 0.83 0.86 0.83 0.77 0.59 0.58 0.63 0.66 0.58 0.51 0.50 0.51 0.49 0.49 0.46 0.43 0.40 0.40
2.48 2.52 2.30 1.86 1.39 1.14 0.91 0.59 0.45 0.49 0.43 0.40 0.37 0.46 0.58 0.76 0.83 0.92 0.84 0.85 0.83 0.74 0.69 0.65 0.75 0.75 0.71 0.74 0.80 0.84 0.81 0.89 0.88 0.77 0.71 0.66 0.58 0.59 0.60 0.56 0.56 0.53 0.53 0.53 0.51 0.45 0.41 0.42 0.42
2.49 2.36 2.06 1.56 1.34 1.31 0.98 0.52 0.41 0.46 0.41 0.38 0.38 0.50 0.60 0.82 0.86 0.82 0.78 0.82 0.85 0.80 0.77 0.74 0.72 0.72 0.75 0.83 0.81 0.82 0.88 0.99 0.96 0.78 0.71 0.71 0.60 0.53 0.52 0.54 0.55 0.55 0.57 0.61 0.55 0.45 0.39 0.43 0.45
1.90 2.02 1.95 1.70 1.47 1.52 0.96 0.51 0.31 0.28 0.30 0.25 0.27 0.43 0.56 0.74 0.73 0.80 0.80 0.82 0.83 0.76 0.73 0.69 0.67 0.70 0.73 0.82 0.85 0.85 0.85 0.94 0.93 0.82 0.81 0.80 0.65 0.54 0.54 0.53 0.57 0.60 0.63 0.68 0.64 0.55 0.48 0.48 0.49
1.75 1.95 2.07 1.96 1.41 1.28 0.79 0.62 0.35 0.20 0.20 0.22 0.24 0.26 0.38 0.42 0.47 0.60 0.71 0.71 0.72 0.68 0.69 0.67 0.64 0.66 0.72 0.79 0.80 0.90 0.93 0.96 0.89 0.82 0.86 0.77 0.57 0.53 0.56 0.51 0.63 0.73 0.86 0.87 0.79 0.69 0.61 0.56 0.48
1.88 1.93 1.84 1.45 0.96 0.80 0.75 0.65 0.36 0.30 0.34 0.33 0.32 0.33 0.49 0.52 0.56 0.67 0.69 0.72 0.69 0.70 0.70 0.67 0.69 0.67 0.66 0.70 0.93 1.10 0.98 0.89 0.78 0.81 0.78 0.76 0.73 0.70 0.52 0.53 0.68 0.75 0.84 0.87 0.81 0.77 0.63 0.47 0.36
1.37 1.44 1.30 1.06 0.69 0.60 0.61 0.48 0.33 0.39 0.47 0.42 0.43 0.48 0.54 0.61 0.63 0.67 0.71 0.73 0.71 0.68 0.68 0.63 0.61 0.56 0.56 0.70 0.87 1.06 1.11 1.07 1.04 0.90 0.89 0.85 0.76 0.65 0.51 0.49 0.54 0.59 0.68 0.67 0.73 0.71 0.50 0.40 0.40
1.13 0.96 0.91 0.84 0.58 0.60 0.56 0.43 0.40 0.43 0.39 0.31 0.34 0.41 0.48 0.54 0.58 0.64 0.69 0.63 0.58 0.58 0.61 0.57 0.55 0.52 0.50 0.50 0.61 0.76 0.83 0.82 0.84 0.85 0.79 0.80 0.81 0.74 0.64 0.58 0.62 0.65 0.63 0.69 0.75 0.73 0.60 0.51 0.43
1.17 0.98 0.78 0.72 0.58 0.61 0.56 0.44 0.37 0.35 0.29 0.28 0.37 0.45 0.52 0.55 0.57 0.54 0.49 0.50 0.51 0.52 0.54 0.56 0.58 0.56 0.61 0.60 0.57 0.56 0.62 0.67 0.72 0.80 0.72 0.67 0.70 0.73 0.75 0.69 0.73 0.70 0.68 0.71 0.72 0.61 0.60 0.59 0.50
0.96 0.92 0.87 0.80 0.71 0.62 0.59 0.46 0.37 0.39 0.32 0.32 0.40 0.47 0.50 0.54 0.52 0.47 0.42 0.39 0.39 0.49 0.59 0.63 0.59 0.62 0.60 0.56 0.59 0.62 0.62 0.66 0.69 0.73 0.66 0.60 0.60 0.62 0.74 0.73 0.78 0.69 0.71 0.79 0.72 0.65 0.67 0.67 0.58
0.73 0.94 0.97 0.82 0.77 0.68 0.62 0.65 0.43 0.40 0.36 0.41 0.42 0.44 0.50 0.52 0.48 0.46 0.44 0.40 0.38 0.45 0.58 0.69 0.67 0.69 0.65 0.60 0.63 0.66 0.66 0.63 0.65 0.69 0.62 0.58 0.61 0.62 0.74 0.78 0.77 0.75 0.78 0.81 0.84 0.83 0.78 0.70 0.62
0.83 1.01 1.22 0.89 0.78 0.69 0.73 0.79 0.51 0.49 0.42 0.42 0.37 0.42 0.44 0.45 0.44 0.42 0.41 0.41 0.41 0.42 0.52 0.64 0.65 0.70 0.73 0.72 0.72 0.70 0.65 0.67 0.72 0.75 0.70 0.66 0.64 0.67 0.87 0.92 0.81 0.86 0.97 1.00 1.01 0.97 0.89 0.79 0.76
1.02 1.07 1.03 0.91 0.71 0.65 0.68 0.65 0.53 0.49 0.42 0.41 0.36 0.34 0.34 0.34 0.36 0.37 0.36 0.37 0.40 0.43 0.48 0.52 0.58 0.78 0.82 0.78 0.83 0.84 0.80 0.86 0.89 0.92 0.89 0.84 0.81 0.89 1.06 1.13 1.04 1.02 1.17 1.14 1.03 1.03 1.04 0.94 0.94
0.80 0.68 0.68 0.73 0.60 0.55 0.60 0.48 0.47 0.43 0.37 0.38 0.35 0.30 0.26 0.27 0.29 0.28 0.27 0.28 0.30 0.36 0.40 0.46 0.55 0.67 0.80 0.95 1.03 1.11 1.11 1.11 1.23 1.30 1.29 1.12 1.07 1.13 1.28 1.38 1.34 1.30 1.41 1.39 1.27 1.35 1.35 1.24 1.27
0.56 0.52 0.59 0.54 0.43 0.46 0.48 0.39 0.39 0.38 0.35 0.31 0.28 0.25 0.23 0.20 0.20 0.17 0.16 0.19 0.22 0.26 0.31 0.37 0.54 0.70 0.86 0.99 1.13 1.38 1.54 1.64 1.63 1.63 1.70 1.62 1.44 1.52 1.63 1.60 1.82 1.89 1.86 1.85 1.80 1.92 1.93 1.66 1.48
0.53 0.53 0.54 0.48 0.35 0.34 0.36 0.32 0.30 0.31 0.30 0.26 0.24 0.23 0.19 0.14 0.13 0.12 0.11 0.12 0.13 0.16 0.22 0.30 0.44 0.68 0.92 1.15 1.33 1.52 1.84 2.00 2.00 2.06 2.01 1.96 1.85 1.87 1.79 1.87 2.08 2.13 2.23 2.32 2.16 2.28 2.33 2.03 1.73
0.48 0.45 0.46 0.43 0.40 0.32 0.28 0.30 0.27 0.26 0.26 0.22 0.17 0.16 0.13 0.10 0.10 0.11 0.09 0.09 0.08 0.10 0.14 0.21 0.34 0.57 0.88 1.19 1.45 1.64 1.88 2.14 2.24 2.15 2.10 2.13 2.21 2.26 2.15 2.11 2.23 2.25 2.32 2.51 2.54 2.49 2.55 2.46 2.16
0.55 0.34 0.32 0.32 0.37 0.39 0.27 0.37 0.31 0.27 0.28 0.24 0.20 0.18 0.16 0.13 0.12 0.11 0.09 0.08 0.08 0.11 0.13 0.17 0.32 0.48 0.72 0.99 1.32 1.57 1.84 2.15 2.22 2.20 2.17 2.21 2.33 2.42 2.38 2.33 2.39 2.39 2.35 2.47 2.56 2.53 2.73 2.88 2.59
0.42 0.25 0.25 0.28 0.29 0.28 0.23 0.34 0.28 0.24 0.29 0.30 0.29 0.26 0.22 0.17 0.16 0.14 0.13 0.12 0.13 0.15 0.18 0.25 0.38 0.54 0.74 0.98 1.30 1.63 1.82 1.99 2.19 2.20 2.11 2.05 2.12 2.14 2.12 2.24 2.39 2.41 2.38 2.39 2.57 2.68 2.85 2.83 2.73
0.28 0.26 0.25 0.24 0.26 0.28 0.18 0.30 0.33 0.28 0.28 0.30 0.31 0.29 0.22 0.16 0.16 0.19 0.23 0.25 0.24 0.25 0.30 0.38 0.51 0.72 0.87 0.97 1.12 1.29 1.50 1.78 1.92 2.02 2.06 2.07 2.07 1.95 1.87 1.98 2.09 2.18 2.23 2.21 2.27 2.42 2.56 2.73 2.86
0.21 0.30 0.40 0.39 0.42 0.37 0.18 0.29 0.38 0.29 0.25 0.26 0.28 0.27 0.24 0.24 0.27 0.34 0.44 0.42 0.40 0.42 0.50 0.57 0.63 0.74 0.79 0.79 0.87 1.00 1.16 1.38 1.52 1.61 1.81 1.88 1.92 1.86 1.81 1.79 1.87 1.95 1.99 2.09 2.26 2.25 2.27 2.45 2.64
0.16 0.23 0.40 0.46 0.42 0.35 0.32 0.44 0.46 0.37 0.29 0.26 0.25 0.22 0.24 0.30 0.40 0.55 0.66 0.71 0.67 0.65 0.65 0.62 0.63 0.61 0.62 0.66 0.73 0.80 0.87 1.01 1.13 1.21 1.37 1.50 1.50 1.48 1.47 1.53 1.63 1.78 1.88 1.98 2.12 2.16 2.12 2.20 2.26
0.15 0.14 0.17 0.27 0.26 0.29 0.38 0.54 0.52 0.36 0.29 0.28 0.27 0.24 0.30 0.43 0.57 0.74 0.86 0.94 0.89 0.81 0.74 0.69 0.69 0.65 0.59 0.61 0.69 0.75 0.80 0.82 0.85 0.89 0.88 0.97 1.06 1.09 1.14 1.20 1.34 1.54 1.68 1.75 1.86 2.00 1.99 2.04 2.05
0.11 0.12 0.16 0.32 0.44 0.45 0.44 0.55 0.61 0.50 0.39 0.37 0.39 0.45 0.56 0.73 0.80 0.91 0.99 0.98 0.97 1.01 0.96 0.78 0.72 0.72 0.66 0.74 0.75 0.72 0.71 0.69 0.68 0.71 0.77 0.78 0.87 0.98 1.07 1.09 1.17 1.29 1.39 1.50 1.68 1.82 1.90 1.92 1.89
0.13 0.17 0.25 0.39 0.47 0.64 0.75 0.85 0.70 0.58 0.56 0.54 0.57 0.75 0.83 0.93 1.00 1.02 1.08 1.02 0.90 0.90 0.88 0.86 0.80 0.74 0.75 0.81 0.81 0.71 0.68 0.68 0.68 0.65 0.67 0.76 0.85 0.95 1.00 1.06 1.11 1.15 1.24 1.29 1.41 1.56 1.70 1.73 1.74
0.25 0.38 0.48 0.66 0.67 0.67 0.91 1.09 0.80 0.65 0.66 0.68 0.68 0.66 0.66 0.83 0.95 0.98 1.05 0.97 0.82 0.77 0.68 0.72 0.80 0.81 0.87 0.87 0.80 0.72 0.72 0.75 0.80 0.78 0.70 0.71 0.77 0.79 0.90 1.04 1.03 1.05 1.10 1.18 1.29 1.39 1.45 1.54 1.50